Location: Barrio Riatas
(40.5506°N, 4.8596°W)
Time: 09:03:57
(UTC+00:00)

Daily predictions for brighter satellites

Satellite Brightness Start Highest point End
(mag) Time Altitude Azimuth Time Altitude Azimuth Time Altitude Azimuth
Cosmos 2233 Rocket 4.4 18:06:36 10° N 18:12:31 41° ENE 18:18:25 10° SSE
Cosmos 2360 Rocket 3.5 18:08:42 10° NW 18:14:04 48° WSW 18:19:27 10° S
Meteor 1-11 4.3 18:09:52 10° S 18:15:16 55° E 18:20:49 10° NNE
Cosmos 1725 Rocket 4.0 18:11:20 10° N 18:17:33 67° E 18:23:47 10° SSE
Cosmos 1315 Rocket 3.1 18:14:43 10° N 18:18:17 39° ENE 18:21:51 10° SSE
Cosmos 1867 4.1 18:13:55 10° SW 18:19:17 62° NW 18:24:43 10° NNE
Lacrosse 5 rocket 2.9 18:20:53 10° W 18:23:44 23° NW 18:26:38 10° NNE
Atlas Centaur 2 4.0 18:17:30 10° SW 18:24:10 31° S 18:30:02 10° ESE
SL-08 R/B 4.5 18:18:19 10° N 18:24:24 60° E 18:30:23 10° SSE
SAR-Lupe-1 4.1 18:21:41 10° SSE 18:25:11 59° ENE 18:28:43 10° N
Cosmos 2061 Rocket 4.3 18:21:36 10° N 18:27:45 48° ENE 18:33:47 10° SSE
SJ-6F 4.4 18:24:47 10° SSE 18:28:44 86° WSW 18:32:42 10° NNW
CZ-4C R/B 1.6 18:25:01 10° SW 18:28:57 87° NW 18:33:56 10° NE
Helios 1A Rocket 4.3 18:28:45 11° E 18:29:08 11° E 18:30:09 10° ESE
BlueWalker 3 2.7 18:28:59 10° WNW 18:32:25 48° SW 18:35:51 10° SSE
Radarsat Rocket 4.2 18:27:35 10° SE 18:33:08 48° ENE 18:38:58 10° N
CARTOSAT-1 4.2 18:29:25 10° SE 18:33:09 32° ENE 18:36:53 10° N
Cosmos 2151 Rocket 3.7 18:28:56 10° N 18:33:21 56° E 18:37:46 10° SSE
Tiangong -0.2 18:32:53 10° SSW 18:35:11 18° SSE 18:37:06 12° ESE
USA 290 3.4 18:33:58 10° SW 18:37:02 44° WNW 18:40:06 10° N
NOSS 0 Rocket 4.3 18:33:15 10° NNW 18:39:12 44° ENE 18:45:07 10° SE
Cosmos 1356 Rocket 3.2 18:37:01 10° N 18:40:56 62° E 18:44:51 10° SSE
SAR-Lupe-4 3.7 18:37:44 10° S 18:41:18 80° WSW 18:44:53 10° NNW
Cosmos 2297 Rocket 2.5 18:39:56 10° S 18:45:17 46° ESE 18:50:40 10° NE
Cosmos 1607 4.3 18:39:29 10° SW 18:45:33 65° NW 18:51:42 10° NNE
BREEZE-M DEB (TANK) 4.4 18:46:07 10° NW 18:49:39 41° NNE 18:56:52 16° E
Cosmos 1975 Rocket 4.3 18:46:54 10° SE 18:49:56 19° E 18:50:37 18° ENE
Cosmos 1455 Rocket 3.8 18:49:52 10° NNE 18:53:34 28° ENE 18:57:15 10° SE
Cosmos 2221 Rocket 3.5 18:50:10 10° S 18:54:34 73° E 18:59:03 10° NNE
YAOGAN 1 2.6 18:50:41 10° S 18:54:56 83° W 18:59:12 10° NNW
Cosmos 1125 Rocket 3.7 18:51:11 10° N 18:56:11 46° ENE 19:01:10 10° SE
Delta 2 Rocket 4.1 18:56:48 10° SW 18:59:25 25° SSE 19:00:39 19° SE
NOAA 6 4.0 18:56:11 10° SSE 19:01:15 68° ENE 19:06:23 10° N
Okean 2 Rocket 3.0 18:58:08 10° N 19:02:33 89° E 19:06:55 10° S
Spot 4 Rocket 4.0 18:58:20 10° SSE 19:03:27 88° ENE 19:08:35 10° NNW
Okean 1 Rocket 2.9 19:01:27 10° N 19:05:52 82° E 19:10:12 10° S
DMSP B5D1-3 4.4 19:01:59 10° NNE 19:07:05 69° ESE 19:12:09 10° S
NOSS 3-3 (C) 4.1 19:04:57 10° SW 19:09:59 62° NW 19:15:56 10° NNE
SL-19 R/B 4.4 19:05:18 10° SSE 19:11:33 81° ENE 19:17:35 10° NNW
Sich 1 Rocket 3.6 19:07:41 10° N 19:12:15 90° W 19:16:48 10° S
COSMOS 2428 2.8 19:07:47 10° NNW 19:13:33 80° WSW 19:19:14 10° SSE
Resurs 01 Rocket 1.5 19:11:24 10° SSE 19:15:45 73° ENE 19:20:09 10° N
SeaSat 1 4.3 19:11:58 10° S 19:16:18 32° WSW 19:20:40 10° NW
Cosmos 1980 3.8 19:11:39 10° NNW 19:17:09 49° ENE 19:20:52 20° SE
Cosmos 2263 Rocket 3.8 19:14:56 10° SSE 19:16:37 16° SE 19:16:37 16° SE
Cosmos 44 Rocket 3.5 19:14:45 10° S 19:19:24 48° ESE 19:21:21 31° ENE
Cosmos 773 Rocket 4.0 19:15:50 10° S 19:20:55 55° ESE 19:25:06 16° NNE
USA 306 4.2 19:19:25 10° NNW 19:19:32 11° NNW 19:19:32 11° NNW
ATLAS 5 CENTAUR R/B 3.2 19:17:12 10° NW 19:21:36 42° WSW 19:26:57 10° S
Cosmos 2237 Rocket 2.3 19:17:15 10° NNW 19:22:47 51° ENE 19:25:52 25° SE
PSLV R/B 3.9 19:20:24 10° S 19:24:29 61° W 19:28:34 10° NNW
COSMO-SKYMED 1 3.9 19:21:33 10° N 19:25:22 37° WNW 19:29:09 10° SW
Aureole 3 Rocket 2.5 19:22:30 10° N 19:26:25 79° W 19:29:35 10° S
BREEZE-M DEB (TANK) 4.0 19:24:05 10° WNW 19:27:39 52° SW 19:33:13 12° SE
Cosmos 836 Rocket 4.4 19:29:08 10° SSW 19:34:23 89° SE 19:39:43 10° NNE
SJ-6B 2.4 19:39:26 77° SW 19:39:35 81° WSW 19:43:03 10° NNW
BREEZE-M DEB (TANK) 3.6 19:36:55 10° NW 19:41:24 84° NE 19:46:30 26° ESE
Cosmos 2227 Rocket 2.1 19:38:39 10° S 19:44:10 59° ESE 19:45:30 46° ENE
SPOT 5 3.6 19:47:23 36° NNE 19:47:23 36° NNE 19:50:42 10° N
SL-16 R/B 3.7 19:41:43 10° N 19:44:20 20° NNE 19:44:20 20° NNE
Cosmos 2285 Rocket 4.1 19:41:12 10° NNW 19:47:38 76° WSW 19:53:58 10° S
Cosmos 1816 Rocket 4.3 19:51:24 10° S 19:57:31 77° E 20:03:43 10° N
Gbstr 26 Del rocket 4.4 19:53:09 10° SSW 19:59:37 48° SE 19:59:56 48° ESE
NOSS 3-4 (A) 3.9 19:54:16 10° NNW 20:01:07 62° NE 20:02:40 52° E
NOSS 3-4 (C) 3.9 19:54:32 10° NNW 20:01:24 61° NE 20:02:53 52° E
Helios 1A Rocket 4.1 20:02:00 31° W 20:02:00 31° W 20:04:31 10° SW
Cosmos 2034 Rocket 4.1 19:57:46 10° N 20:02:53 52° NE 20:02:53 52° NE
Cosmos 1072 Rocket 4.4 19:59:22 10° N 20:05:38 82° W 20:11:46 10° S
BREEZE-M DEB (TANK) 4.2 19:46:58 10° W 20:08:39 66° NNW 20:10:46 46° NE
Tiangong 0.8 20:08:37 10° WSW 20:09:26 16° WSW 20:09:26 16° WSW
Atlas Centaur 2 3.4 20:05:49 10° WSW 20:12:14 34° S 20:12:54 33° S
CZ-4C R/B 4.4 20:15:31 10° WNW 20:18:13 15° NNW 20:21:07 10° N
CSL-04 Debris 4.5 20:26:10 61° NW 20:26:10 61° NW 20:30:42 10° NNW
CSL-04 Rocket 4.0 20:29:00 58° WNW 20:29:00 58° WNW 20:33:31 10° NNW
BREEZE-M (TANK) 3.7 20:24:54 10° WNW 20:28:32 78° SW 20:28:32 78° SW
Cosmos 2297 Rocket 4.1 20:24:47 10° WSW 20:29:30 27° NW 20:34:15 10° N
Cosmos 2344 3.7 20:53:00 10° SW 21:00:58 62° NW 21:01:16 61° NW
Cosmos 2263 Rocket 4.3 20:56:52 10° SW 20:58:24 19° SW 20:58:24 19° SW
Cosmos 2237 Rocket 4.3 21:02:08 10° NW 21:06:23 22° W 21:07:47 20° WSW
Cosmos 2227 Rocket 4.4 21:24:21 10° WSW 21:27:24 20° WNW 21:27:24 20° WNW
